[[{"header":{"parameterUnit":"m.s-1","parameterCategory":1,"la1":30.2991,"la2":30.254,"lo1":-89.0895,"lo2":-89.0444,"dy":0.0017,"dx":0.0017,"nx":28,"ny":28,"refTime":"2024-03-26T21:00:00:Z","depth":0,"parameterNumber":2,"parameterNumberName":"U-component_of_WINDS"},"data":[0,0,0,0,0,0,0,0,0,0,0,0,0,0,0,0,0,0,0,0,0,0,0,0,0,0,0,0,0,0,0,0,0,0,0,0,0,0,0,0,0,0,0,0,0,0,0,0,0,0,0,0,0,0,0,0,0,0,1.7147,1.7147,0,1.714,1.714,1.714,1.7111,1.711,1.711,1.7109,1.7103,1.7103,1.7103,0,0,0,0,0,0,0,0,0,0,0,0,0,1.7135,1.7135,1.7147,1.7147,1.7147,1.714,1.714,1.714,1.7111,1.711,1.711,1.7109,1.7102,1.7103,1.7103,0,0,0,0,0,0,0,0,0,0,0,0,0,1.7136,1.7136,1.7147,1.7131,1.713,1.714,1.714,1.714,1.7111,1.711,1.7109,1.7108,1.7102,1.7103,1.7104,1.7128,0,0,1.7106,1.7106,0,0,0,0,0,0,0,0,1.7136,1.7136,1.7134,1.7133,1.7131,1.7126,1.7134,1.7136,1.7112,1.7119,1.7109,1.7108,1.7111,1.7111,1.7112,1.7128,1.7128,1.7106,1.7106,1.7106,1.7107,0,0,0,0,0,0,0,1.7136,1.7136,1.7144,1.7134,1.7132,1.7125,1.7124,1.7134,1.7121,1.7118,1.7116,1.7115,1.711,1.7111,1.7112,1.7128,1.7106,1.7106,1.7107,1.7107,1.7164,1.7166,0,0,0,0,0,0,1.7138,1.7136,1.7144,1.7144,1.7131,1.7126,1.7125,1.7128,1.712,1.7118,1.7116,1.7114,1.7111,1.7111,1.7111,1.714,1.7106,1.7107,1.7107,1.7163,1.7165,1.7166,0,0,0,0,0,0,1.7137,1.7139,1.7145,1.714,1.714,1.7128,1.7131,1.7129,1.713,1.7119,1.7117,1.712,1.711,1.711,1.7124,1.7139,1.7107,1.7108,1.7162,1.7164,1.7165,1.7197,0,0,0,0,0,0,1.7137,1.7139,1.7148,1.714,1.714,1.7158,1.7132,1.7129,1.7131,1.7128,1.7122,1.712,1.7109,1.7124,1.7125,1.7139,1.7109,1.7161,1.7163,1.7165,1.7195,1.72,1.7204,0,0,0,0,0,1.7137,1.7157,1.7148,1.7149,1.7151,1.7159,1.7159,1.7146,1.7133,1.7142,1.7135,1.712,1.7138,1.7125,1.7127,1.7142,1.716,1.7162,1.7165,1.7192,1.7199,1.7204,0,0,0,0,0,0,1.7166,1.7155,1.7146,1.7164,1.7162,1.7154,1.7164,1.7153,1.7155,1.7152,1.7136,1.7135,1.7152,1.7148,1.7135,1.7166,1.7146,1.7149,1.7167,1.7173,1.7177,1.7177,1.7109,0,0,0,0,0,1.7174,1.7181,1.7172,1.7188,1.7188,1.7177,1.718,1.717,1.7168,1.7167,1.7161,1.716,1.7165,1.7169,1.7173,1.7195,1.7193,1.7206,1.721,1.7214,1.7216,1.7228,1.7234,1.7174,1.7174,1.7174,0,0,1.7192,1.7187,1.7192,1.7194,1.7192,1.72,1.7176,1.7185,1.7191,1.7168,1.7181,1.7177,1.7175,1.7193,1.7201,1.7191,1.7233,1.7217,1.722,1.7221,1.7231,1.7237,1.7242,1.7176,1.7176,1.7175,0,0,1.7227,1.7224,1.7238,1.7237,1.7234,1.7226,1.723,1.7224,1.722,1.7233,1.7216,1.7223,1.7233,1.7232,1.7232,1.727,1.7256,1.7272,1.7295,1.7307,1.7312,1.7316,1.7329,1.7334,1.7274,1.7275,1.7275,0,1.7249,1.726,1.7246,1.7257,1.7258,1.7239,1.7253,1.7253,1.7251,1.7253,1.7242,1.7254,1.7251,1.7269,1.7278,1.728,1.7283,1.7272,1.7312,1.7316,1.732,1.7332,1.7337,1.7276,1.7276,1.7276,1.7276,0,1.7287,1.7295,1.7306,1.7306,1.7309,1.7321,1.731,1.7315,1.7306,1.73,1.7314,1.731,1.7313,1.7317,1.7308,1.7334,1.7328,1.7315,1.7295,1.7327,1.7339,1.7343,1.7279,1.7278,1.7278,1.7277,0,0,1.7338,1.7332,1.7336,1.7336,1.7333,1.7338,1.7351,1.7354,1.7359,1.7359,1.7369,1.7378,1.7366,1.7367,1.7358,1.7368,1.7398,1.7354,1.7354,1.7362,1.7427,1.7436,1.7442,1.739,1.7391,1.7392,1.7427,0,1.7372,1.7391,1.738,1.7401,1.7409,1.7392,1.7402,1.7401,1.7397,1.7402,1.7397,1.7404,1.7388,1.7389,1.7398,1.7393,1.7411,1.739,1.7399,1.7399,1.7399,1.7448,1.7457,1.749,1.7431,1.7432,1.7433,0,1.7413,1.7415,1.7437,1.7433,1.7436,1.7445,1.7448,1.7454,1.7454,1.745,1.7452,1.7441,1.7452,1.7434,1.745,1.7436,1.7439,1.7438,1.7439,1.7438,1.7417,1.7448,1.7501,1.7506,1.7439,1.7439,1.7438,0,1.7448,1.7457,1.7471,1.7472,1.7468,1.7475,1.7474,1.7472,1.7475,1.7478,1.748,1.7485,1.7487,1.7491,1.7481,1.7469,1.7499,1.7479,1.7496,1.7496,1.7502,1.7501,1.7555,1.7505,1.7505,1.7505,1.7505,0,1.7485,1.7499,1.7487,1.7496,1.7511,1.7499,1.7515,1.7512,1.7511,1.7519,1.7505,1.7513,1.7501,1.7508,1.7501,1.7516,1.7517,1.7514,1.7512,1.7514,1.7515,1.7515,1.7513,1.7507,1.7506,1.7506,1.7506,0,1.7526,1.7518,1.7533,1.7528,1.7528,1.7539,1.7536,1.7544,1.7539,1.7549,1.7551,1.7543,1.7551,1.7543,1.7549,1.7545,1.7565,1.7559,1.7565,1.7563,1.7579,1.7578,1.7635,1.7642,1.7588,1.7589,1.7589,0,1.755,1.7561,1.7558,1.7562,1.7562,1.7569,1.7573,1.7563,1.7567,1.7568,1.7576,1.7583,1.7587,1.76,1.7595,1.7601,1.7595,1.7615,1.7596,1.7599,1.7595,1.7594,1.7595,1.7618,1.7619,1.762,1.762,0,1.7594,1.759,1.7595,1.76,1.7605,1.7608,1.761,1.7615,1.7604,1.761,1.7618,1.7621,1.7629,1.7636,1.764,1.7639,1.7628,1.7627,1.763,1.7633,1.7635,1.7634,1.7574,1.7625,1.7624,1.7624,1.7624,1.7624,1.7626,1.7635,1.7635,1.7642,1.7642,1.7645,1.7653,1.7649,1.7656,1.7661,1.7655,1.7665,1.7665,1.767,1.767,1.7678,1.767,1.7675,1.7677,1.7678,1.768,1.7635,1.7679,1.7679,1.7679,1.7679,1.7678,0,1.7669,1.7668,1.7675,1.7678,1.7684,1.7674,1.7676,1.7682,1.7691,1.7692,1.7697,1.7707,1.7714,1.771,1.7716,1.7723,1.7719,1.7725,1.7724,1.7724,1.7688,1.7683,1.7729,1.7729,1.7729,1.7729,1.7729,1.7729,1.7691,1.7706,1.7702,1.7717,1.7716,1.7726,1.7728,1.7731,1.7732,1.7743,1.7749,1.7747,1.7746,1.7753,1.7759,1.7758,1.776,1.7769,1.7766,1.7732,1.7727,1.7722,1.7718,1.777,1.777,1.7801,1.7802,1.7802]},{"header":{"parameterUnit":"m.s-1","parameterCategory":1,"la1":30.2991,"la2":30.254,"lo1":-89.0895,"lo2":-89.0444,"dy":0.0017,"dx":0.0017,"nx":28,"ny":28,"refTime":"2024-03-26T21:00:00:Z","depth":0,"parameterNumber":3,"parameterNumberName":"V-component_of_WINDS"},"data":[0,0,0,0,0,0,0,0,0,0,0,0,0,0,0,0,0,0,0,0,0,0,0,0,0,0,0,0,0,0,0,0,0,0,0,0,0,0,0,0,0,0,0,0,0,0,0,0,0,0,0,0,0,0,0,0,0,0,-6.8688,-6.869,0,-6.8873,-6.8875,-6.8877,-6.8827,-6.8823,-6.882,-6.8816,-6.8999,-6.9007,-6.9016,0,0,0,0,0,0,0,0,0,0,0,0,0,-6.8285,-6.8292,-6.8688,-6.869,-6.8693,-6.8873,-6.8875,-6.8878,-6.8828,-6.8823,-6.8819,-6.8815,-6.8997,-6.9006,-6.9016,0,0,0,0,0,0,0,0,0,0,0,0,0,-6.8464,-6.8295,-6.8687,-6.8689,-6.8691,-6.8872,-6.8876,-6.8879,-6.8829,-6.8823,-6.8818,-6.8812,-6.8993,-6.9006,-6.9018,-6.9206,0,0,-6.9056,-6.9061,0,0,0,0,0,0,0,0,-6.8454,-6.8479,-6.8687,-6.869,-6.8692,-6.8822,-6.88,-6.8988,-6.883,-6.8776,-6.8816,-6.881,-6.8944,-6.896,-6.9007,-6.9215,-6.9223,-6.9057,-6.9065,-6.907,-6.9074,0,0,0,0,0,0,0,-6.8441,-6.847,-6.8761,-6.869,-6.8693,-6.8679,-6.8698,-6.8836,-6.8889,-6.8781,-6.8778,-6.88,-6.8945,-6.8995,-6.9011,-6.9225,-6.9057,-6.9068,-6.9076,-6.908,-6.9597,-6.9603,0,0,0,0,0,0,-6.8428,-6.846,-6.8755,-6.8766,-6.8557,-6.8691,-6.8712,-6.8786,-6.8887,-6.8898,-6.8805,-6.8797,-6.8977,-6.8997,-6.9017,-6.9246,-6.907,-6.9082,-6.9089,-6.9591,-6.9599,-6.9605,0,0,0,0,0,0,-6.8419,-6.8454,-6.8748,-6.8613,-6.8649,-6.8704,-6.8786,-6.8792,-6.8843,-6.8906,-6.8914,-6.8848,-6.8973,-6.9,-6.916,-6.9251,-6.9087,-6.9099,-6.9584,-6.9593,-6.9602,-6.9703,0,0,0,0,0,0,-6.8408,-6.8452,-6.8525,-6.8615,-6.8656,-6.889,-6.8792,-6.88,-6.8865,-6.8857,-6.8948,-6.8958,-6.8971,-6.9142,-6.9173,-6.9266,-6.9108,-6.9576,-6.9588,-6.9599,-6.9692,-6.9715,-6.9735,0,0,0,0,0,-6.8394,-6.8545,-6.8529,-6.8565,-6.875,-6.8895,-6.8919,-6.8933,-6.8873,-6.8947,-6.8987,-6.8955,-6.9236,-6.9159,-6.9193,-6.9291,-6.957,-6.9584,-6.9598,-6.9683,-6.971,-6.9734,0,0,0,0,0,0,-6.8462,-6.8557,-6.854,-6.8725,-6.8803,-6.8886,-6.898,-6.8961,-6.9056,-6.9044,-6.9055,-6.9076,-6.924,-6.9281,-6.9193,-6.9479,-6.9394,-6.9416,-6.9447,-6.9474,-6.9494,-6.9482,-6.9119,0,0,0,0,0,-6.8499,-6.8611,-6.8687,-6.8842,-6.8882,-6.8925,-6.8988,-6.8993,-6.9072,-6.9104,-6.9156,-6.9233,-6.9339,-6.9408,-6.9509,-6.9697,-6.9716,-6.9781,-6.9802,-6.982,-6.9838,-6.9942,-6.9972,-6.9651,-6.9651,-6.9651,0,0,-6.8576,-6.8641,-6.8711,-6.8858,-6.8919,-6.9033,-6.8952,-6.9076,-6.9161,-6.9122,-6.9278,-6.9319,-6.9405,-6.9581,-6.9661,-6.962,-6.9931,-6.9837,-6.9851,-6.986,-6.9959,-6.999,-7.0016,-6.9661,-6.9659,-6.9658,0,0,-6.8775,-6.8836,-6.8973,-6.9036,-6.913,-6.9157,-6.919,-6.9277,-6.9303,-6.946,-6.9434,-6.9533,-6.9715,-6.9778,-6.9834,-7.0057,-7.0031,-7.0089,-7.0201,-7.0301,-7.0326,-7.0349,-7.043,-7.0458,-7.0107,-7.0108,-7.0108,0,-6.8858,-6.9032,-6.9045,-6.9173,-6.9238,-6.9211,-6.9349,-6.9408,-6.9529,-6.9574,-6.9527,-6.9756,-6.9811,-7.0002,-7.0057,-7.0103,-7.014,-7.008,-7.0322,-7.0345,-7.0366,-7.0443,-7.0473,-7.0114,-7.0114,-7.0113,-7.0112,0,-6.913,-6.9251,-6.935,-6.9471,-6.9546,-6.9679,-6.9711,-6.9786,-6.9783,-6.9815,-6.9975,-7.0041,-7.0155,-7.02,-7.0198,-7.0391,-7.0363,-7.0319,-7.0234,-7.0403,-7.0476,-7.0505,-7.0124,-7.0121,-7.0119,-7.0118,0,0,-6.9378,-6.9505,-6.9542,-6.9597,-6.9698,-6.979,-6.992,-7.0035,-7.0099,-7.0183,-7.0292,-7.0447,-7.0408,-7.0471,-7.0475,-7.0563,-7.0737,-7.0509,-7.0511,-7.055,-7.0955,-7.0989,-7.1023,-7.072,-7.0726,-7.073,-7.0948,0,-6.9587,-6.982,-6.9836,-7.0045,-7.0157,-7.0132,-7.0245,-7.0319,-7.0352,-7.0449,-7.0484,-7.0595,-7.0534,-7.0572,-7.0658,-7.0698,-7.0819,-7.0682,-7.0821,-7.0826,-7.0802,-7.106,-7.1096,-7.1299,-7.0976,-7.0981,-7.0985,0,-6.9862,-6.9958,-7.0179,-7.0266,-7.0313,-7.0416,-7.0522,-7.0616,-7.0698,-7.0716,-7.0787,-7.0779,-7.0911,-7.0821,-7.1003,-7.091,-7.0967,-7.0995,-7.1003,-7.1018,-7.0917,-7.1083,-7.1363,-7.1394,-7.1029,-7.1026,-7.1023,0,-7.0023,-7.0206,-7.0363,-7.041,-7.0515,-7.0587,-7.0634,-7.0711,-7.0779,-7.087,-7.0914,-7.1019,-7.1077,-7.1158,-7.1177,-7.111,-7.1359,-7.1271,-7.1377,-7.1377,-7.1432,-7.1428,-7.1727,-7.1467,-7.1466,-7.1465,-7.1465,0,-7.0255,-7.0392,-7.0437,-7.0533,-7.0685,-7.0701,-7.0851,-7.0892,-7.0961,-7.1064,-7.1047,-7.1143,-7.1163,-7.1263,-7.1279,-7.1428,-7.1453,-7.147,-7.1473,-7.1473,-7.1471,-7.1512,-7.1498,-7.1474,-7.1472,-7.147,-7.1469,0,-7.0461,-7.0496,-7.0666,-7.0752,-7.0776,-7.0885,-7.0957,-7.1049,-7.108,-7.121,-7.1241,-7.1289,-7.1406,-7.1434,-7.1572,-7.1582,-7.1759,-7.1747,-7.1732,-7.1732,-7.1837,-7.1828,-7.2173,-7.222,-7.1928,-7.1931,-7.1933,0,-7.0608,-7.0713,-7.0811,-7.088,-7.0931,-7.1042,-7.1112,-7.1131,-7.1204,-7.1306,-7.1386,-7.1501,-7.1595,-7.1782,-7.1828,-7.1933,-7.1925,-7.2039,-7.194,-7.1937,-7.1928,-7.1922,-7.1933,-7.2058,-7.2061,-7.2063,-7.2065,0,-7.0866,-7.0878,-7.0981,-7.1091,-7.1175,-7.1262,-7.1344,-7.1401,-7.1431,-7.1513,-7.1635,-7.1707,-7.185,-7.1964,-7.2071,-7.2116,-7.2096,-7.2096,-7.2126,-7.2128,-7.2116,-7.2125,-7.1785,-7.2088,-7.2086,-7.2084,-7.2083,-7.2082,-7.1047,-7.114,-7.1225,-7.134,-7.1404,-7.1482,-7.1573,-7.1616,-7.1718,-7.1838,-7.1841,-7.1973,-7.2052,-7.2193,-7.2245,-7.2347,-7.2312,-7.2355,-7.2367,-7.2378,-7.2388,-7.2099,-7.2366,-7.2365,-7.2365,-7.2364,-7.2364,0,-7.1305,-7.1359,-7.1464,-7.1582,-7.1672,-7.1648,-7.1737,-7.1814,-7.1931,-7.2008,-7.2101,-7.224,-7.2351,-7.2406,-7.2515,-7.2586,-7.258,-7.2615,-7.261,-7.2621,-7.2412,-7.2376,-7.2618,-7.2618,-7.2618,-7.2618,-7.2618,-7.2618,-7.1451,-7.1607,-7.1629,-7.1817,-7.1868,-7.2,-7.2053,-7.2124,-7.2186,-7.2343,-7.2436,-7.2472,-7.2539,-7.2654,-7.2754,-7.2767,-7.2809,-7.2849,-7.2857,-7.2661,-7.2636,-7.2611,-7.2577,-7.2857,-7.2858,-7.3058,-7.3059,-7.3061]}]]